Location: Unspecified
(50.1700°N, 6.8600°E)
Time: 08:39:34
(UTC+00:00)

Radarsat Rocket - Pass Details

Date: 24 January 2019
Orbit: 933 x 1492 km, 100.6° (Epoch: 17 October)

Event Time Altitude Azimuth Distance (km) Brightness Sun altitude
Rises 06:27:51 0° 13° (NNE) 3,643 6.9 -8.0°
Reaches altitude 10° 06:30:19 10° 7° (N) 2,728 6.2 -7.7°
Maximum altitude 06:35:57 42° 299° (WNW) 1,430 4.5 -6.8°
Drops below altitude 10° 06:42:08 10° 231° (SW) 2,984 6.3 -5.9°
Sets 06:44:57 0° 225° (SW) 4,022 7.0 -5.5°
